Tracking 18850 objects as of 22-Nov-2017
HD Live streaming from Space Station
objects crossing your sky now

FENGYUN 1C DEB

Track FENGYUN 1C DEB now!
10-day predictions


NORAD ID: 31334
Int'l Code: 1999-025BQN
Perigee: 814.8 km
Apogee: 920.0 km
Inclination: 99.1 °
Period: 102.1 minutes
Semi major axis: 7238 km
RCS: 0.0121 m2 (small)
Launch date: May 10, 1999
Source: People's Republic of China (PRC)
Launch site: Taiyaun Space Center, China (TSC)

Note: This is SATELLITE DEBRIS
aabbcc
Your satellite tracking list
Your tracking list is empty




NASA's NSSDC Master Catalog

Two Line Element Set (TLE):
1 31334U 99025BQN 17325.25352668 +.00001398 +00000-0 +80270-3 0  9995
2 31334 099.1420 349.9711 0072664 022.7173 337.7185 14.09738945542782
Source of the keplerian elements: AFSPC